カタログに戻る

SCOUT G-1 DEB

運用中PO
NORAD 44570·DEBRIS·🇺🇸 United States

打ち上げ Aug 3, 1985 から Vandenberg Space Force Base

Loading…

次のパス (今後24時間)

TLE

古いSource: Space-Track

元期: Aug 31, 2026, 09:44 UTC

1 44570U 85066J   26243.40579030  .00000495  00000-0  85207-3 0  9993
2 44570  90.1570  97.4123 0161534  66.7746  51.5544 13.38022039609185

AllMySatでSCOUT G-1 DEBをリアルタイム追跡

Download on the App Store